CHOMPTT
1 43855U 18104G 20212.53839547 .00000764 00000-0 30662-4 0 9998
2 43855 085.0398 146.7109 0015151 251.3121 108.6477 15.23032444090084
ISAT
1 43879U 18111D 20212.83311956 .00000619 00000-0 59856-4 0 9999
2 43879 97.6992 119.5612 0014896 97.7418 262.5496 14.96268905 84965
UWE-4
1 43880U 18111E 20212.80640401 .00000137 00000-0 17159-4 0 9993
2 43880 97.6997 119.8274 0013694 99.6813 260.5956 14.96512487 84971
Sparrow
1 43881U 18111F 20212.18571757 -.00000287 00000-0 -20081-4 0 9998
2 43881 97.7012 119.2952 0013947 98.2662 262.0141 14.96559147 84883
Lume 1
1 43908U 18111AJ 20212.81228518 .00000767 00000-0 33286-4 0 9994
2 43908 97.2614 111.4635 0021094 354.9358 5.1664 15.25107551 88638
FO-98
1 43933U 19003B 20212.38370521 .00000558 00000-0 27121-4 0 9996
2 43933 097.2269 260.4718 0019649 090.8489 269.4999 15.22161909085067
FO-99
1 43937U 19003F 20212.68385598 .00001026 00000-0 44231-4 0 9995
2 43937 97.2232 262.1250 0025713 73.3156 287.0902 15.24470534 85224
Delphini 1
1 44030U 98067PW 20212.38198882 .00016148 00000-0 15042-3 0 9990
2 44030 51.6341 96.4953 0002696 235.8022 124.2719 15.67529958 85246
MYSat 1
1 44045U 18092F 20212.37060156 .00001964 00000-0 64367-4 0 9992
2 44045 51.6378 193.8729 0011677 117.5852 242.6319 15.36839323 81884
AstroCast 0.2
1 44083U 19018F 20212.75771538 .00000578 00000-0 28589-4 0 9994
2 44083 97.4183 273.1982 0013830 27.4543 332.7421 15.21655137 73968
AISTechSat 3
1 44103U 19018AB 20212.73169311 .00000676 00000-0 31488-4 0 9996
2 44103 97.4053 273.3686 0014362 41.2312 74.4592 15.23219884 74023
AISat 1
1 44104U 19018AC 20212.43608046 .00000699 00000-0 24699-4 0 9998
2 44104 97.4617 282.3755 0059518 61.1412 299.5784 15.31121434 74385
Raavana-1
1 44329U 98067QE 20212.16212321 .00008272 00000-0 11239-3 0 9995
2 44329 051.6393 119.9399 0005911 154.9190 205.2091 15.58553123063665
Uguisu
1 44330U 98067QF 20212.11295557 .00008283 00000-0 11293-3 0 9996
2 44330 51.6370 120.3466 0005936 154.3747 205.7540 15.58457260 63638
NepaliSat-1
1 44331U 98067QG 20212.47463936 .00008506 00000-0 11528-3 0 9993
2 44331 051.6373 118.2645 0005892 158.8106 201.3132 15.58574706063708
Prox-1
1 44339U 19036A 20212.32898639 .00000724 00000-0 12196-3 0 9992
2 44339 23.9987 202.0898 0010288 259.0052 100.9282 14.53050450 58376
Oculus-ASR
1 44348U 19036K 20212.82786916 .00011637 00000-0 17175-3 0 9998
2 44348 28.5152 98.7033 0365226 50.6877 312.5513 15.03063684 60333
Armadillo
1 44352U 19036P 20212.36357315 .00018016 00000-0 26480-3 0 9996
2 44352 028.5304 096.3362 0351950 053.6463 309.6083 15.06025726060268
NO-104
1 44354U 19036R 20212.79660007 .00012317 00000-0 17873-3 0 9994
2 44354 28.5295 95.8409 0361992 54.1306 309.2346 15.04106365 60348
NO-103
1 44355U 19036S 20211.98259197 .00024773 00000-0 34304-3 0 9996
2 44355 028.5294 090.1742 0338643 063.3198 300.1656 15.10036975060333
CP9
1 44360U 19036X 20212.30984399 .00040232 -51605-5 45214-3 0 9991
2 44360 028.5122 070.4695 0317428 096.2293 267.4552 15.18032832060444
Move-IIb
1 44398U 19038N 20212.49274501 .00000993 00000-0 60612-4 0 9998
2 44398 097.5386 173.1833 0024776 343.3941 016.6476 15.12396033059082
SONATE
1 44400U 19038Q 20212.80283108 .00000326 00000-0 22703-4 0 9999
2 44400 97.5428 173.5019 0024684 340.6900 19.3392 15.11990447 59126
BeeSat 9
1 44412U 19038AC 20212.41005482 .00000607 00000-0 38619-4 0 9991
2 44412 97.5412 173.2138 0022408 348.0046 12.0648 15.12353816 58763
JAISAT-1
1 44419U 19038F 20212.41662723 .00000635 00000-0 39721-4 0 9991
2 44419 97.5413 173.5171 0021244 347.2639 12.8052 15.12837329 59097
LightSail-2
1 44420U 19036AC 20212.36800520 .00004319 00000-0 91484-3 0 9990
2 44420 24.0072 196.5797 0012285 228.3545 131.5895 14.55984264 56575
Taurus 1
1 44530U 19059C 20212.78750663 .00000560 00000-0 17122-3 0 9996
2 44530 98.5696 294.2912 0015582 38.6268 321.6058 14.45533959 46603
MO-106
1 44830U 19084G 20212.37717725 .00078285 00000-0 35295-3 0 9994
2 44830 96.9683 82.0633 0022957 75.2419 285.1393 15.83412415 37237
TRSI-Sat
1 44831U 19084H 20212.39387136 .00068650 00000-0 31643-3 0 9994
2 44831 96.9682 82.0682 0023145 74.2801 286.1020 15.82963649 37243
MO-105
1 44832U 19084J 20212.76843176 .00080544 41801-5 33057-3 0 9993
2 44832 96.9680 82.7461 0020689 72.7747 287.5786 15.85753246 37311
Duchifat 3
1 44854U 19089C 20212.65619712 .00000180 00000-0 20978-4 0 9995
2 44854 36.9676 203.0309 0007929 45.0081 315.1314 14.99090000 34788
OPS-SAT
1 44878U 19092F 20212.48440715 .00000715 00000-0 41142-4 0 9991
2 44878 097.4696 035.0280 0013437 201.3704 158.6969 15.15544425034059
TO-108
1 44881U 19093C 20212.75677217 -.00000019 00000-0 44565-5 0 9996
2 44881 97.9569 288.5128 0013656 255.6207 104.3484 14.81415677 33109
FloripaSat 1
1 44885U 19093G 20212.73658408 .00000194 00000-0 31171-4 0 9990
2 44885 97.9567 288.6779 0013289 266.8826 93.0861 14.82053275 33114
RS-44
1 44909U 19096E 20212.43764078 .00000006 00000-0 -29276-4 0 9994
2 44909 082.5240 326.7510 0218388 125.8844 236.2750 12.79708107027685
SwampSat-2
1 45115U 19071E 20212.54804737 .00007073 00000-0 20966-3 0 9992
2 45115 051.6406 153.7096 0011638 213.8319 146.1923 15.35906158027746
HO-107
1 45119U 19071J 20212.33941857 .00001017 00000-0 42215-4 0 9992
2 45119 51.6436 156.0423 0011889 206.4829 153.5547 15.33680257 27702
Phoenix
1 45258U 98067RB 20212.48644291 .00003233 00000-0 62160-4 0 9999
2 45258 51.6412 132.6005 0006530 137.1821 222.9678 15.51139337 25156
AztechSat-1
1 45261U 98067RE 20212.48101372 .00006426 00000-0 11103-3 0 9998
2 45261 051.6410 131.8219 0007933 153.5013 206.6383 15.52329300025197
QARMAN
1 45263U 98067RG 20212.14901280 .00005213 00000-0 93903-4 0 9991
2 45263 51.6412 134.1018 0007505 149.2060 210.9371 15.51597773 25165
Quetzal 1
1 45598U 98067RL 20212.50421506 .00004864 00000-0 90847-4 0 9995
2 45598 051.6418 133.4731 0002211 239.2648 120.8124 15.50721071014473
BY70-2
1 45857U 20042B 20212.76493077 .00000643 00000-0 10029-3 0 9995
2 45857 98.0124 285.5643 0012081 161.4466 198.7186 14.76228615 4082
/EX
1
0
SB KEPS @ AMSAT $ORB20205.N
2Line Orbital Elements 20205.AMSAT
HR AMSAT ORBITAL ELEMENTS FOR AMATEUR SATELLITES IN NASA FORMAT
FROM WA5QGD FORT WORTH,TX July 23, 2020
BID: ORB20205.N
DECODE 2-LINE ELSETS WITH THE FOLLOWING KEY:
1 AAAAAU 00 0 0 BBBBB.BBBBBBBB .CCCCCCCC 00000-0 00000-0 0 DDDZ
2 AAAAA EEE.EEEE FFF.FFFF GGGGGGG HHH.HHHH III.IIII JJ.JJJJJJJJKKKKKZ
KEY: A-CATALOGNUM B-EPOCHTIME C-DECAY D-ELSETNUM E-INCLINATION F-RAAN
G-ECCENTRICITY H-ARGPERIGEE I-MNANOM J-MNMOTION K-ORBITNUM Z-CHECKSUM
TO ALL RADIO AMATEURS BT
AO-07
1 07530U 74089B 20205.48277872 -.00000043 00000-0 13494-4 0 9990
2 07530 101.8018 175.0260 0011861 296.2265 184.6086 12.53644244090508
UO-11
1 14781U 84021B 20205.45028052 .00000011 00000-0 73722-5 0 9999
2 14781 097.5894 215.6333 0010059 084.2955 275.9406 14.83179338937162
LO-19
1 20442U 90005G 20205.40270221 -.00000003 00000-0 15438-4 0 9992
2 20442 098.6939 152.7774 0012735 052.5234 307.7106 14.32956924593769
HUBBLE
1 20580U 90037B 20205.79346029 .00000335 00000-0 93875-5 0 9991
2 20580 28.4701 79.3049 0002843 122.0282 332.3461 15.09408263461545
MET-2/21
1 22782U 93055A 20205.76974663 .00000006 00000-0 -79659-5 0 9998
2 22782 82.5477 204.7625 0023493 131.0006 42.3561 13.83826532358338
AO-27
1 22825U 93061C 20205.47484219 -.00000026 00000-0 81926-5 0 9996
2 22825 098.9235 208.8343 0007310 272.9830 087.0515 14.30089046398963
IO-26
1 22826U 93061D 20205.45281420 -.00000023 00000-0 92702-5 0 9995
2 22826 098.9176 208.7547 0007840 259.3611 100.6688 14.30425042399444
